Terminal Aerodrome Forecast
Issued by NWS Charleston, WV

Current Version | Previous Version | Graphics & Text | Print | Product List | Glossary On
Versions: 1 2 3 4 5 6 7 8 9 10 11 12 13 14 15 16 17 18 19 20 21 22 23
000
FTUS41 KRLX 291839 AAA
TAFHTS
TAF AMD
KHTS 291839Z 2919/3018 22006KT P6SM VCSH SCT050
     FM292300 24005KT P6SM SCT040
     FM300900 00000KT 6SM BR BKN050
     FM301300 20004KT P6SM BKN060=

USA.gov is the U.S. government's official web portal to all federal, state and local government web resources and services.